Location: Unspecified
(58.7730°N, 5.8460°E)
Time: 18:45:10
(UTC+02:00)

Okean 3 - Visible Passes

Search period start: 21 July 2017 00:00
Search period end: 31 July 2017 00:00
Orbit: 577 x 603 km, 82.5° (Epoch: 21 July)

Date Brightness Start Highest point End Pass type
(mag) Time Alt. Az. Time Alt. Az. Time Alt. Az.
21 Jul 4.1 00:24:47 10° NNW 00:28:50 49° W 00:32:52 10° S visible
22 Jul 4.6 00:33:09 10° NNW 00:37:01 36° W 00:40:50 10° SSW visible
23 Jul 5.1 00:41:35 10° NNW 00:45:08 27° W 00:48:41 10° SSW visible
24 Jul 5.5 00:50:05 10° NW 00:53:14 21° W 00:56:23 10° SW visible
24 Jul 3.5 23:20:25 10° NNW 23:24:38 88° E 23:28:50 10° SSE visible
25 Jul 5.8 00:58:44 10° NW 01:01:19 16° W 01:03:53 10° WSW visible
25 Jul 3.7 23:28:41 10° NNW 23:32:52 69° W 23:37:02 10° S visible
26 Jul 6.0 01:07:42 10° NW 01:09:20 12° WNW 01:10:58 10° WSW visible
26 Jul 4.1 23:37:00 10° NNW 23:41:05 50° W 23:45:07 10° S visible
27 Jul 4.7 23:45:22 10° NNW 23:49:15 37° W 23:53:07 10° SSW visible
28 Jul 5.2 23:53:47 10° NNW 23:57:22 28° W 00:00:59 10° SSW visible
30 Jul 5.6 00:02:16 10° NW 00:05:29 22° W 00:08:41 10° SW visible
